| time (UTC) | temp C | wind direction | speed KPH | gust KPH | rain 1hr cm | rain 24hr cm | rain mn cm | humidity % | barometer mb |
| 20260507014558 | 13 | 258 | 11.3 | 17.7 | 0.00 | 0.00 | 0.00 | 78 | 1020.9 |
| 20260507013058 | 13 | 230 | 4.8 | 16.1 | 0.00 | 0.00 | 0.00 | 79 | 1020.9 |
| 20260507011552 | 13 | 227 | 3.2 | 14.5 | 0.00 | 0.00 | 0.00 | 79 | 1020.9 |
| 20260507010048 | 13 | 226 | 8.0 | 16.1 | 0.00 | 0.00 | 0.00 | 78 | 1021.1 |
| 20260507004549 | 13 | 225 | 4.8 | 16.1 | 0.00 | 0.00 | 0.00 | 80 | 1021.1 |
| 20260507003048 | 13 | 273 | 3.2 | 19.3 | 0.00 | 0.00 | 0.00 | 80 | 1021.0 |
| 20260507001547 | 13 | 261 | 9.7 | 20.9 | 0.00 | 0.00 | 0.00 | 80 | 1021.0 |
| 20260507000046 | 13 | 269 | 9.7 | 17.7 | 0.00 | 0.00 | 0.00 | 79 | 1021.1 |
| 20260506234554 | 13 | 295 | 6.4 | 19.3 | 0.00 | 0.00 | 0.00 | 79 | 1021.1 |
| 20260506233051 | 14 | 255 | 11.3 | 22.5 | 0.00 | 0.00 | 0.00 | 78 | 1021.1 |
| 20260506231553 | 14 | 271 | 9.7 | 20.9 | 0.00 | 0.00 | 0.00 | 76 | 1021.1 |
| 20260506230044 | 14 | 263 | 9.7 | 19.3 | 0.00 | 0.00 | 0.00 | 77 | 1021.1 |
| 20260506224544 | 15 | 271 | 4.8 | 17.7 | 0.00 | 0.00 | 0.00 | 77 | 1021.2 |
| 20260506223043 | 15 | 263 | 12.9 | 24.1 | 0.00 | 0.00 | 0.00 | 77 | 1021.2 |
| 20260506221539 | 14 | 282 | 12.9 | 25.7 | 0.00 | 0.00 | 0.00 | 79 | 1021.4 |
| 20260506220036 | 13 | 271 | 8.0 | 22.5 | 0.00 | 0.00 | 0.00 | 80 | 1021.4 |
| 20260506214534 | 13 | 281 | 11.3 | 22.5 | 0.00 | 0.00 | 0.00 | 80 | 1021.5 |
| 20260506213037 | 13 | 253 | 6.4 | 16.1 | 0.00 | 0.00 | 0.00 | 81 | 1021.5 |
| 20260506211531 | 13 | 300 | 4.8 | 16.1 | 0.00 | 0.00 | 0.00 | 81 | 1021.6 |
| 20260506210034 | 13 | 273 | 8.0 | 19.3 | 0.00 | 0.00 | 0.00 | 80 | 1021.5 |
| 20260506204534 | 13 | 288 | 14.5 | 25.7 | 0.00 | 0.00 | 0.00 | 80 | 1021.5 |
| 20260506203037 | 13 | 265 | 8.0 | 19.3 | 0.00 | 0.00 | 0.00 | 80 | 1021.4 |
| 20260506201531 | 13 | 281 | 4.8 | 20.9 | 0.00 | 0.00 | 0.00 | 82 | 1021.3 |
| 20260506200025 | 13 | 267 | 8.0 | 14.5 | 0.00 | 0.00 | 0.00 | 83 | 1021.2 |
| 20260506194525 | 13 | 307 | 8.0 | 16.1 | 0.00 | 0.00 | 0.00 | 84 | 1021.2 |
| 20260506193023 | 12 | 274 | 3.2 | 11.3 | 0.00 | 0.00 | 0.00 | 84 | 1021.0 |
| 20260506191522 | 12 | 269 | 1.6 | 9.7 | 0.00 | 0.00 | 0.00 | 85 | 1021.0 |
| 20260506190020 | 12 | 242 | 1.6 | 9.7 | 0.00 | 0.00 | 0.00 | 85 | 1021.1 |
| 20260506184519 | 12 | 261 | 4.8 | 14.5 | 0.00 | 0.00 | 0.00 | 86 | 1021.2 |
| 20260506183018 | 12 | 275 | 8.0 | 16.1 | 0.00 | 0.00 | 0.00 | 86 | 1021.2 |
| 20260506181515 | 12 | 300 | 8.0 | 16.1 | 0.00 | 0.00 | 0.00 | 89 | 1020.8 |
| 20260506180017 | 12 | 288 | 6.4 | 14.5 | 0.00 | 0.00 | 0.00 | 89 | 1020.8 |
| 20260506174514 | 11 | 276 | 6.4 | 14.5 | 0.00 | 0.00 | 0.00 | 90 | 1020.9 |
| 20260506173018 | 11 | 284 | 9.7 | 19.3 | 0.00 | 0.00 | 0.00 | 91 | 1020.9 |
| 20260506171514 | 11 | 235 | 8.0 | 17.7 | 0.00 | 0.00 | 0.00 | 92 | 1021.0 |
| 20260506170013 | 11 | 244 | 3.2 | 14.5 | 0.00 | 0.00 | 0.00 | 93 | 1020.8 |
| 20260506164510 | 11 | 242 | 4.8 | 11.3 | 0.00 | 0.00 | 0.00 | 94 | 1020.8 |
| 20260506163011 | 11 | 279 | 1.6 | 8.0 | 0.00 | 0.00 | 0.00 | 95 | 1020.5 |
| 20260506161514 | 11 | 267 | 3.2 | 8.0 | 0.00 | 0.00 | 0.00 | 95 | 1020.3 |
| 20260506160009 | 11 | 290 | 1.6 | 4.8 | 0.00 | 0.00 | 0.00 | 95 | 1020.5 |
| 20260506154507 | 11 | 284 | 3.2 | 9.7 | 0.00 | 0.00 | 0.00 | 95 | 1020.8 |
| 20260506153005 | 11 | 287 | 3.2 | 9.7 | 0.00 | 0.00 | 0.00 | 95 | 1020.7 |
| 20260506151505 | 11 | 246 | 1.6 | 6.4 | 0.00 | 0.00 | 0.00 | 94 | 1020.3 |
| 20260506150005 | 11 | 265 | 3.2 | 12.9 | 0.00 | 0.00 | 0.00 | 94 | 1020.5 |
| 20260506144504 | 11 | 283 | 8.0 | 16.1 | 0.00 | 0.00 | 0.00 | 93 | 1020.6 |
| 20260506143059 | 11 | 288 | 6.4 | 11.3 | 0.00 | 0.00 | 0.00 | 93 | 1020.2 |
| 20260506141558 | 11 | 277 | 3.2 | 9.7 | 0.00 | 0.00 | 0.00 | 93 | 1020.1 |
| 20260506140058 | 11 | 263 | 3.2 | 11.3 | 0.00 | 0.00 | 0.00 | 92 | 1020.2 |
| 20260506134555 | 11 | 240 | 1.6 | 12.9 | 0.00 | 0.00 | 0.00 | 92 | 1019.9 |
| 20260506133054 | 11 | 261 | 6.4 | 14.5 | 0.00 | 0.00 | 0.00 | 91 | 1019.9 |
| 20260506131600 | 11 | 225 | 0.0 | 3.2 | 0.00 | 0.00 | 0.00 | 91 | 1019.7 |
| 20260506130103 | 11 | 225 | 0.0 | 3.2 | 0.00 | 0.00 | 0.00 | 91 | 1019.6 |
| 20260506124557 | 11 | 225 | 0.0 | 8.0 | 0.00 | 0.00 | 0.00 | 91 | 1019.5 |
| 20260506123048 | 11 | 233 | 1.6 | 8.0 | 0.00 | 0.00 | 0.00 | 91 | 1019.4 |
| 20260506121548 | 11 | 226 | 0.0 | 0.0 | 0.00 | 0.00 | 0.00 | 91 | 1019.3 |
| 20260506120046 | 11 | 226 | 0.0 | 3.2 | 0.00 | 0.00 | 0.00 | 91 | 1019.4 |
| 20260506114546 | 11 | 226 | 1.6 | 6.4 | 0.00 | 0.00 | 0.00 | 91 | 1019.0 |
| 20260506113052 | 11 | 229 | 0.0 | 3.2 | 0.00 | 0.00 | 0.00 | 90 | 1019.2 |
| 20260506111544 | 11 | 229 | 4.8 | 8.0 | 0.00 | 0.00 | 0.00 | 90 | 1019.3 |
| 20260506110051 | 11 | 226 | 3.2 | 11.3 | 0.00 | 0.00 | 0.00 | 89 | 1019.0 |
| 20260506104548 | 11 | 209 | 4.8 | 9.7 | 0.00 | 0.00 | 0.00 | 89 | 1019.0 |
| 20260506103047 | 11 | 235 | 3.2 | 8.0 | 0.00 | 0.00 | 0.00 | 88 | 1018.9 |
| 20260506101549 | 11 | 235 | 3.2 | 6.4 | 0.00 | 0.00 | 0.00 | 88 | 1018.7 |
| 20260506100135 | 11 | 231 | 3.2 | 11.3 | 0.00 | 0.00 | 0.00 | 88 | 1018.5 |
| 20260506094533 | 11 | 188 | 3.2 | 9.7 | 0.00 | 0.00 | 0.00 | 89 | 1018.3 |
| 20260506093041 | 11 | 237 | 4.8 | 11.3 | 0.00 | 0.00 | 0.00 | 88 | 1018.3 |
| 20260506091535 | 11 | 202 | 4.8 | 9.7 | 0.00 | 0.00 | 0.00 | 88 | 1018.3 |
| 20260506090030 | 11 | 246 | 6.4 | 16.1 | 0.00 | 0.00 | 0.00 | 89 | 1018.2 |
| 20260506084528 | 11 | 223 | 6.4 | 12.9 | 0.00 | 0.00 | 0.00 | 89 | 1018.1 |
| 20260506083028 | 11 | 227 | 3.2 | 12.9 | 0.00 | 0.00 | 0.00 | 89 | 1018.0 |
| 20260506081532 | 11 | 202 | 1.6 | 8.0 | 0.00 | 0.00 | 0.00 | 89 | 1018.0 |
| 20260506073033 | 12 | 226 | 1.6 | 6.4 | 0.00 | 0.00 | 0.00 | 87 | 1017.7 |
| 20260506071515 | 12 | 234 | 3.2 | 4.8 | 0.00 | 0.00 | 0.00 | 86 | 1017.7 |
| 20260506061509 | 13 | 232 | 6.4 | 12.9 | 0.00 | 0.00 | 0.00 | 84 | 1017.1 |
| 20260506044507 | 14 | 223 | 3.2 | 12.9 | 0.00 | 0.00 | 0.00 | 82 | 1016.4 |
| 20260506043110 | 15 | 231 | 1.6 | 8.0 | 0.00 | 0.00 | 0.00 | 82 | 1016.3 |
| 20260506041604 | 15 | 225 | 0.0 | 4.8 | 0.00 | 0.00 | 0.00 | 81 | 1016.2 |
| 20260506040059 | 15 | 225 | 3.2 | 8.0 | 0.00 | 0.00 | 0.00 | 81 | 1016.1 |
| 20260506034627 | 15 | 242 | 3.2 | 6.4 | 0.00 | 0.00 | 0.00 | 80 | 1015.9 |
| 20260506033103 | 16 | 269 | 0.0 | 1.6 | 0.00 | 0.00 | 0.00 | 77 | 1015.7 |
| 20260506031603 | 16 | 269 | 0.0 | 1.6 | 0.00 | 0.00 | 0.00 | 77 | 1015.6 |
| 20260506030055 | 17 | 269 | 0.0 | 3.2 | 0.00 | 0.00 | 0.00 | 77 | 1015.5 |
| 20260506024556 | 17 | 269 | 1.6 | 6.4 | 0.00 | 0.00 | 0.00 | 76 | 1015.5 |
| 20260506023110 | 17 | 269 | 1.6 | 6.4 | 0.00 | 0.00 | 0.00 | 76 | 1015.5 |
| 20260506021557 | 17 | 272 | 4.8 | 11.3 | 0.00 | 0.00 | 0.00 | 74 | 1015.6 |
| 20260506020054 | 17 | 289 | 3.2 | 11.3 | 0.00 | 0.00 | 0.00 | 74 | 1015.6 |